Home > Weather > Eckernförde > Past weeks

Flag for Germany Past Weather in Eckernförde, Schleswig-Holstein, Germany — Yesterday and Last 2 Weeks

Now
64 °F

Mild.


Feels Like: 64 °F
Forecast: 61 / 81 °F
Wind: 6 mph from East

Location: Schleswig-Jagel

Current Time: Aug 27, 2016 at 8:57:45 PM

Latest Report: Aug 27, 2016 at 8:20 PM


Visibility: N/A

Pressure: 30.09 "Hg

Humidity: 60%

Dew Point: 50 °F

Location of EckernfördeLocation

Past Weather in Eckernförde — Graph

°F

Eckernförde Temperature Yesterday

Maximum temperature yesterday: 82 °F (at 12:20 PM)
Minimum temperature yesterday: 61 °F (at 11:20 PM)
Average temperature yesterday: 71 °F

High & Low Weather Summary for the Past Weeks

 TemperatureHumidityPressure
High86 °F (Aug 25, 3:20 PM)100% (Aug 13, 5:20 AM)30.30 "Hg (Aug 13, 5:20 AM)
Low45 °F (Aug 16, 5:20 AM)41% (Aug 16, 3:20 PM)29.77 "Hg (Aug 20, 6:20 AM)
Average63 °F79%30.06 "Hg
* Reported Aug 12 7:20 PM — Aug 27 7:20 PM, Eckernförde, Weather by CustomWeather, © 2016

Note: Actual official high and low records may vary slightly from our data, if they occured in-between our weather recording intervals... More about our weather records

Advertising

Eckernförde Weather History for the Previous 24 Hours

Scroll right to see more
 ConditionsComfort  
Time TempWeatherWind HumidityBarometerVisibility
7:20 PM
Sat, Aug 27
68 °FMild.7 mph49%30.09 "HgN/A
6:20 PM70 °FMild.9 mph43%30.12 "HgN/A
5:20 PM70 °FMild.10 mph46%30.12 "HgN/A
4:20 PM72 °FMild.8 mph53%30.15 "HgN/A
3:20 PM72 °FMild.5 mph57%30.15 "HgN/A
2:20 PM70 °FMild.5 mph60%30.15 "HgN/A
1:20 PM72 °FMild.5 mph53%30.18 "HgN/A
12:20 PM68 °FMild.5 mph60%30.18 "HgN/A
11:20 AM66 °FMild.6 mph68%30.18 "HgN/A
10:20 AM66 °FMild.5 mph73%30.18 "HgN/A
9:20 AM63 °FMild.2 mph88%30.18 "HgN/A
8:20 AM57 °FCool.No wind100%30.18 "Hg1 mi
7:20 AM54 °FCool.1 mph100%30.15 "Hg0 mi
6:20 AM54 °FCool.2 mph100%30.15 "Hg0 mi
5:20 AM55 °FCool.1 mph100%30.15 "Hg0 mi
4:20 AM57 °FCool.1 mph94%30.12 "Hg2 mi
3:20 AM57 °FCool.2 mph94%30.12 "Hg1 mi
2:20 AM59 °FCool.2 mph94%30.12 "Hg2 mi
1:20 AM59 °FCool.3 mph94%30.12 "HgN/A
12:20 AM61 °FCool.5 mph88%30.12 "HgN/A
11:20 PM
Fri, Aug 26
61 °FCool.3 mph94%30.09 "HgN/A
10:20 PM63 °FMild.5 mph88%30.09 "HgN/A
9:20 PM63 °FMild.7 mph88%30.09 "HgN/A
8:20 PM64 °FMild.7 mph88%30.07 "HgN/A
Weather by CustomWeather, © 2016

See weather overviewHow to use our weather pages